Location: Ahausen
(50.4985°N, 8.2722°E)
Time: 10:32:47
(UTC+00:00)

JY1SAT - Visible Passes

Search period start: 30 June 2022 00:00
Search period end: 10 July 2022 00:00
Orbit: 566 x 585 km, 97.6° (Epoch: 29 June)

Date Brightness Start Highest point End Pass type
(mag) Time Alt. Az. Time Alt. Az. Time Alt. Az.
30 Jun ? 21:48:42 10° SW 21:51:56 22° W 21:55:12 10° NW visible
01 Jul ? 21:52:29 10° SW 21:55:35 20° W 21:58:43 10° NW visible
02 Jul ? 21:56:17 10° SW 21:59:15 19° W 22:02:12 10° NW visible
03 Jul ? 20:23:15 10° SSE 20:27:18 56° ENE 20:31:23 10° N visible
03 Jul ? 22:00:07 10° SW 22:02:53 17° W 22:05:41 10° NW visible
04 Jul ? 20:26:49 10° SSE 20:30:54 61° ENE 20:35:01 10° N visible
04 Jul ? 22:03:57 10° SW 22:06:33 16° W 22:09:09 10° NW visible
05 Jul ? 20:30:24 10° SSE 20:34:31 66° ENE 20:38:39 10° N visible
05 Jul ? 22:07:50 10° SW 22:10:12 15° W 22:12:35 10° NW visible
06 Jul ? 20:33:59 10° SSE 20:38:07 72° ENE 20:42:16 10° N visible
06 Jul ? 22:11:45 10° WSW 22:13:51 14° W 22:15:59 10° WNW visible
07 Jul ? 20:37:35 10° SSE 20:41:44 79° ENE 20:45:53 10° N visible
07 Jul ? 22:15:42 10° WSW 22:17:31 13° W 22:19:20 10° WNW visible
08 Jul ? 20:41:11 10° SSE 20:45:20 85° ENE 20:49:30 10° NNW visible
08 Jul ? 22:19:44 10° WSW 22:21:10 11° W 22:22:36 10° WNW visible
09 Jul ? 20:44:47 10° SSE 20:48:56 88° WSW 20:53:05 10° NNW visible
09 Jul ? 22:23:58 10° W 22:24:50 11° W 22:25:40 10° WNW visible
